Flag for Germany Weather past 2 weeks in Nienburg (Weser), Lower Saxony, Germany

Now
73 °F

Mild.


Feels Like: 77 °F
Forecast: 56 / 71 °F
Wind: 10 mph from South

Location: Wunstorf Airport

Current Time: Aug 31, 2015 at 9:55:01 PM

Latest Report: Aug 31, 2015 at 9:20 PM


Visibility: 3 mi

Pressure: 29.71 "Hg

Humidity: 57%

Dew point: 57 °F

Location of Nienburg (Weser)Location

Historic Weather in Nienburg (Weser) — Graph

°F

Nienburg (Weser) temperature yesterday

Maximum temperature yesterday: 84 °F (at 5:20 PM)
Minimum temperature yesterday: 59 °F (at 5:20 AM)
Average temperature yesterday: 70 °F

Past Weeks' High & Low Weather Summary

 TemperatureHumidityPressure
High91 °F (Aug 31, 5:20 PM)100% (Aug 16, 11:20 PM)30.27 "Hg (Aug 16, 11:20 PM)
Low50 °F (Aug 29, 6:20 AM)32% (Aug 22, 1:20 PM)29.59 "Hg (Aug 24, 6:20 PM)
Average65 °F75%29.98 "Hg
* Reported Aug 16 8:20 PM — Aug 31 8:20 PM, Nienburg (Weser), Weather by CustomWeather, © 2015

Note: Actual official high and low records may vary slightly from our data, if they occured in-between our weather recording intervals... More about our weather records

Advertising

Nienburg (Weser) weather history for previous 24 hours

 ConditionsComfort  
Time TempWeatherWind HumidityBarometerVisibility
8:20 PM
Mon, Aug 31
81 °FWarm.9 mph45%29.71 "Hg3 mi
7:20 PM84 °FPassing clouds.12 mph43%29.71 "HgN/A
6:20 PM88 °FPassing clouds.8 mph40%29.71 "HgN/A
5:20 PM91 °FScattered clouds.9 mph38%29.74 "HgN/A
4:20 PM88 °FPartly sunny.10 mph59%29.77 "HgN/A
3:20 PM86 °FScattered clouds.9 mph62%29.80 "HgN/A
2:20 PM82 °FScattered clouds.10 mph66%29.83 "HgN/A
1:20 PM81 °FPartly sunny.13 mph62%29.86 "HgN/A
12:20 PM77 °FPartly sunny.10 mph74%29.89 "HgN/A
11:20 AM75 °FScattered clouds.7 mph83%29.92 "HgN/A
10:20 AM73 °FPartly sunny.7 mph94%29.92 "Hg5 mi
9:47 AM70 °FFog.5 mph100%29.92 "Hg2 mi
9:20 AM68 °FFog.5 mph100%29.92 "Hg1 mi
8:20 AM66 °FFog.3 mph100%29.95 "Hg0 mi
7:20 AM66 °FFog.3 mph100%29.95 "Hg0 mi
6:20 AM66 °FFog.2 mph100%29.95 "Hg0 mi
5:20 AM68 °FMild.5 mph94%29.95 "Hg0 mi
4:20 AM68 °FMild.1 mph94%29.98 "Hg1 mi
3:20 AM68 °FMild.2 mph94%29.98 "Hg0 mi
2:20 AM68 °FMild.2 mph94%29.98 "Hg0 mi
1:20 AM68 °FMild.3 mph100%29.98 "Hg0 mi
12:20 AM70 °FMild.3 mph94%29.98 "Hg1 mi
11:20 PM
Sun, Aug 30
70 °FMild.2 mph100%29.98 "Hg2 mi
10:20 PM72 °FMild.3 mph94%29.98 "Hg3 mi
9:20 PM73 °FMild.3 mph94%29.98 "Hg3 mi
Weather by CustomWeather, © 2015

See weather overviewHow to use our weather pages